TimeCST,TemperatureF,Dew PointF,Humidity,Sea Level PressureIn,VisibilityMPH,Wind Direction,Wind SpeedMPH,Gust SpeedMPH,PrecipitationIn,Events,Conditions,WindDirDegrees,DateUTC
12:53 AM,19.9,12.9,74,30.32,10.0,Calm,Calm,-,N/A,,Clear,0,2012-02-13 06:53:00
1:53 AM,19.0,14.0,81,30.31,10.0,SSE,3.5,-,N/A,,Clear,160,2012-02-13 07:53:00
2:53 AM,19.0,14.0,81,30.30,10.0,Calm,Calm,-,N/A,,Clear,0,2012-02-13 08:53:00
3:53 AM,18.0,14.0,84,30.29,10.0,Calm,Calm,-,N/A,,Clear,0,2012-02-13 09:53:00
4:53 AM,23.0,16.0,74,30.28,10.0,Calm,Calm,-,N/A,,Partly Cloudy,0,2012-02-13 10:53:00
5:53 AM,25.0,17.1,72,30.28,10.0,Calm,Calm,-,N/A,,Clear,0,2012-02-13 11:53:00
6:53 AM,26.1,16.0,66,30.27,10.0,SSE,3.5,-,N/A,,Overcast,160,2012-02-13 12:53:00
7:53 AM,27.0,17.1,66,30.28,10.0,South,3.5,-,N/A,,Overcast,170,2012-02-13 13:53:00
8:53 AM,28.9,17.1,61,30.26,10.0,SSE,3.5,-,N/A,,Overcast,150,2012-02-13 14:53:00
9:53 AM,30.9,18.0,59,30.25,10.0,SSE,3.5,-,N/A,,Overcast,160,2012-02-13 15:53:00
10:53 AM,34.0,18.0,52,30.22,10.0,South,9.2,-,N/A,,Overcast,170,2012-02-13 16:53:00
11:53 AM,35.1,14.0,42,30.18,10.0,Variable,6.9,-,N/A,,Overcast,0,2012-02-13 17:53:00
12:53 PM,36.0,14.0,41,30.13,10.0,South,6.9,-,N/A,,Overcast,170,2012-02-13 18:53:00
1:53 PM,36.0,18.0,48,30.10,10.0,South,12.7,17.3,N/A,,Overcast,170,2012-02-13 19:53:00
2:53 PM,34.0,23.0,64,30.08,10.0,South,6.9,-,N/A,,Overcast,190,2012-02-13 20:53:00
3:53 PM,35.1,23.0,61,30.07,10.0,South,5.8,-,N/A,,Overcast,190,2012-02-13 21:53:00
4:23 PM,33.8,24.8,70,30.05,2.5,SW,6.9,-,0.00,Snow,Light Snow,220,2012-02-13 22:23:00
4:33 PM,33.8,26.6,75,30.04,1.8,SSW,4.6,-,0.00,Snow,Light Snow,200,2012-02-13 22:33:00
4:43 PM,33.8,26.6,75,30.04,2.0,South,8.1,-,0.00,Snow,Light Snow,180,2012-02-13 22:43:00
4:53 PM,32.0,26.1,79,30.05,1.5,South,10.4,17.3,0.00,Snow,Light Snow,180,2012-02-13 22:53:00
5:30 PM,30.2,28.4,93,30.01,0.8,SSE,8.1,-,0.02,Snow,Light Snow,160,2012-02-13 23:30:00
5:38 PM,30.2,28.4,93,30.01,2.5,SSE,8.1,-,0.02,Snow,Light Snow,150,2012-02-13 23:38:00
5:45 PM,30.2,28.4,93,30.00,5.0,SSE,8.1,-,0.02,Snow,Light Snow,150,2012-02-13 23:45:00
5:53 PM,30.9,28.0,89,30.02,7.0,SSE,9.2,-,0.03,,Overcast,150,2012-02-13 23:53:00
6:03 PM,30.2,28.4,93,30.01,8.0,SSE,6.9,-,0.00,Rain,Light Freezing Rain,160,2012-02-14 00:03:00
6:29 PM,30.2,28.4,93,30.00,10.0,SE,8.1,-,0.01,Rain,Light Freezing Rain,140,2012-02-14 00:29:00
6:53 PM,32.0,28.9,88,30.00,6.0,SSE,9.2,-,0.02,Rain,Light Freezing Rain,150,2012-02-14 00:53:00
7:06 PM,32.0,28.4,87,29.99,8.0,SSE,10.4,-,0.01,Rain,Light Freezing Rain,160,2012-02-14 01:06:00
7:13 PM,32.0,28.4,87,29.99,8.0,SSE,8.1,-,0.01,Rain,Light Freezing Rain,150,2012-02-14 01:13:00
7:50 PM,32.0,30.2,93,29.98,10.0,SSE,6.9,-,0.01,,Overcast,160,2012-02-14 01:50:00
7:53 PM,32.0,30.0,92,29.99,10.0,South,6.9,-,0.01,,Overcast,170,2012-02-14 01:53:00
8:00 PM,32.0,30.2,93,29.98,9.0,SSE,8.1,-,0.01,,Overcast,160,2012-02-14 02:00:00
8:11 PM,32.0,30.2,93,29.97,5.0,SE,9.2,-,0.01,Rain,Light Freezing Rain,140,2012-02-14 02:11:00
8:21 PM,32.0,30.2,93,29.98,7.0,SSE,9.2,-,0.02,Rain,Light Freezing Rain,160,2012-02-14 02:21:00
8:30 PM,32.0,30.2,93,29.97,7.0,SSE,8.1,-,0.02,Rain,Light Freezing Rain,150,2012-02-14 02:30:00
8:53 PM,33.1,30.0,89,29.99,10.0,South,5.8,-,0.03,Rain,Light Freezing Rain,170,2012-02-14 02:53:00
9:53 PM,33.1,30.9,92,29.97,6.0,SSE,8.1,-,0.05,Rain,Light Freezing Rain,160,2012-02-14 03:53:00
10:46 PM,33.8,30.2,87,29.94,6.0,South,5.8,-,0.03,Rain,Light Freezing Rain,170,2012-02-14 04:46:00
10:51 PM,33.8,30.2,87,29.94,5.0,South,6.9,-,0.03,,Overcast,170,2012-02-14 04:51:00
10:53 PM,33.1,30.9,92,29.95,4.0,SSE,5.8,-,0.03,,Overcast,160,2012-02-14 04:53:00
11:18 PM,33.8,32.0,93,29.94,3.0,South,4.6,-,0.01,Rain,Light Rain,180,2012-02-14 05:18:00
11:53 PM,33.1,30.9,92,29.94,3.0,Calm,Calm,-,0.02,,Overcast,0,2012-02-14 05:53:00